User: anonymous   Login
Location: Unspecified
(0.0000°N, 0.0000°E)
Time: 07:30:47
(UTC+00:00)
Language:

Kosmos-1791 - Orbit

View from above orbital plane
View from above orbital plane
View from above satellite
View from above satellite

Ground track
Ground track

The orbit data is extracted from the following two-line orbital elements,

1 17066U 86086A   18174.83048203 +.00000015 +00000-0 -54968-6 0  9992
2 17066 082.9484 262.8135 0042411 104.7095 034.6724 13.75764828587302
Epoch (UTC): 23 June 2018 19:55:53
Eccentricity: 0.0042411
inclination: 82.9484°
perigee height: 948 km
apogee height: 1010 km
right ascension of ascending node: 262.8135°
argument of perigee: 104.7095°
revolutions per day: 13.75764828
mean anomaly at epoch: 34.6724°
orbit number at epoch: 58730

The dashed part of the orbit path shows where the satellite is in the earth's shadow,  

DLR